Regional Weather Roundup
Issued by NWS

Home | Current Version | Previous Version | Graphics & Text | Print | Product List | Glossary On
Versions: 1 2 3 4 5 6 7 8 9 10 11 12 13 14 15 16 17 18 19 20 21 22 23 24 25 26 27 28 29 30 31 32 33 34 35 36 37 38 39 40 41 42 43 44 45 46 47 48 49 50
000
ASUS43 KMKX 232000
RWRWI

WISCONSIN REGIONAL WEATHER ROUNDUP
NATIONAL WEATHER SERVICE MILWAUKEE/SULLIVAN WI
300 PM CDT MON APR 23 2018

NOTE: "FAIR" INDICATES FEW OR NO CLOUDS BELOW 12,000 FEET WITH NO
SIGNIFICANT WEATHER AND/OR OBSTRUCTIONS TO VISIBILITY.

WIZ001-002-006>008-014>016-023>028-232100-
NORTHWEST WISCONSIN

CITY           SKY/WX    TMP DP  RH WIND       PRES   REMARKS
SUPERIOR ARPT  FAIR      68  38  32 W8        30.14F
ASHLAND        FAIR      65  31  28 SW6       30.15F
HAYWARD        FAIR      65  32  29 SW6       30.17F
SIREN          FAIR      66  29  25 SW3       30.17F
CUMBERLAND     FAIR      59  28  31 CALM      30.20S
RICE LAKE      FAIR      62  31  31 NW5       30.20F
CHETEK         FAIR      64  33  31 N6        30.19S
LADYSMITH      FAIR      65  31  28 W6        30.20S
EAU CLAIRE     NOT AVBL
MENOMONIE      FAIR      66  27  23 CALM      30.18S
NEW RICHMOND   FAIR      67  29  24 SW5       30.18S
OSCEOLA        FAIR      66  32  27 CALM      30.20F
$$

WIZ003>005-009-010-017-018-232100-
NORTH CENTRAL WISCONSIN

CITY           SKY/WX    TMP DP  RH WIND       PRES   REMARKS
MANITOWISH WTR FAIR      59  29  31 SW3       30.17F
ARBOR VITAE    FAIR      62  27  26 W3        30.18F
WOODRUFF       FAIR      62  27  26 W3        30.18F
RHINELANDER    FAIR      62  27  26 W5        30.19F
EAGLE RIVER    FAIR      58  22  25 W7        30.18S
LAND O LAKES   FAIR      62  23  22 W7        30.19S
PHILLIPS       FAIR      62  31  32 SW6       30.18S
TOMAHAWK       FAIR      60  23  24 CALM      30.19F
MEDFORD        FAIR      59  32  36 CALM      30.20S
MERRILL        FAIR      62  28  27 W7        30.20F
$$

WIZ029-030-035-036-043>047-232100-
CENTRAL WISCONSIN

CITY           SKY/WX    TMP DP  RH WIND       PRES   REMARKS
WAUSAU         FAIR      63  23  21 SW3       30.17F
MOSINEE        MOSUNNY   61  23  23 VRB5      30.20S
MARSHFIELD     FAIR      62  25  24 E7        30.18F
STEVENS POINT  FAIR      59  24  26 CALM      30.20F
WAUPACA        FAIR      65  24  21 CALM      30.19F
WAUTOMA        FAIR      64  26  23 VRB6      30.18
WISC RAPIDS    FAIR      65  27  23 E6        30.18F
CAMP DOUGLAS   NOT AVBL
$$

WIZ011>013-019>022-031-037>040-048>050-232100-
NORTHEAST WISCONSIN

CITY           SKY/WX    TMP DP  RH WIND       PRES   REMARKS
ANTIGO         FAIR      59  30  32 N3        30.20F
SHAWANO        FAIR      62  26  26 NE5       30.20S
OCONTO         FAIR      59  24  26 S6        30.20F
STURGEON BAY   NOT AVBL
GREEN BAY      FAIR      62  29  28 NE6       30.19F
MANITOWOC      FAIR      61  25  25 VRB6      30.19F
APPLETON       SUNNY     61  23  23 N6        30.15F
CLINTONVILLE   FAIR      60  19  21 CALM      30.20F
OSHKOSH        FAIR      59  32  36 NE9       30.18F
$$

WIZ032>034-041-042-053>061-232100-
SOUTHWEST WISCONSIN

CITY           SKY/WX    TMP DP  RH WIND       PRES   REMARKS
LA CROSSE      FAIR      68  28  22 NW8       30.15F
SPARTA         FAIR      67  26  20 SE9       30.18S
VIROQUA        FAIR      64  33  30 N8        30.16F
BOSCOBEL       FAIR      71  26  18 VRB6      30.14F
PRAIRIE DU CHI FAIR      66  19  16 N3        30.14F
PLATTEVILLE    FAIR      67  27  22 NE9G16    30.14F
$$

WIZ056-057-062-063-064-067-068-232100-
SOUTH CENTRAL WISCONSIN

CITY           SKY/WX    TMP DP  RH WIND       PRES   REMARKS
REEDSBURG      FAIR      65  24  21 NE8       30.15F
BARABOO/DELLS  FAIR      65  23  20 E9        30.16F
LONE ROCK      NOT AVBL
MINERAL POINT  FAIR      66  23  19 NE12G18   30.14F
MADISON        PTSUNNY   66  25  21 E9        30.15F
MIDDLETON      FAIR      65  27  23 E10G16    30.16F
WATERTOWN      FAIR      65  26  22 E6        30.16S
MONROE         FAIR      64  18  16 NE10      30.13F
JANESVILLE     PTSUNNY   72  23  16 E15G21    30.13F
$$

WIZ051-052-058>065-066-070>072-232100-
SOUTHEAST WISCONSIN

CITY           SKY/WX    TMP DP  RH WIND       PRES   REMARKS
MILWAUKEE      PTSUNNY   59  30  33 N13       30.17F
WAUKESHA       SUNNY     61  23  23 NE10      30.17F
MILWAUKEE/TIMM SUNNY     61  16  17 N12G17    30.18F
RACINE         FAIR      57  29  34 NE14      30.17F
BURLINGTON     FAIR      65  25  22 NE10G20   30.15F
KENOSHA        FAIR      64  26  23 NE17G25   30.15F
FOND DU LAC    FAIR      62  34  35 NE12      30.17F
SHEBOYGAN      FAIR      61  32  33 NE13      30.18F
WEST BEND      FAIR      63  19  19 E7        30.17F
JUNEAU         FAIR      64  28  25 E10       30.18F
$$

LSZ147-162-232100-
LAKE SUPERIOR

STATION/POSITION TIME  TEMP    WIND        PRES    WAVE
                       AIR SEA DIR/SP/G            HT/PER
                 (UTC) (F)     (DEG/KT/KT) (MB)    (FT/S)
DEVILS ISLAND    1900   52     240/ 17/ 18 1021.5F
SAXON HARBOR     1940   53      60/  7/  7 1020.7F
$$

LMZ867-665-643>646-232100-
LAKE MICHIGAN

STATION/POSITION TIME  TEMP    WIND        PRES    WAVE
                       AIR SEA DIR/SP/G            HT/PER
                 (UTC) (F)     (DEG/KT/KT) (MB)    (FT/S)
NORTHPORT PIER   1940   41                 1023.0F
KEWAUNEE LAKESHO 1930   48      30/  5/  5 1022.1F
SHEBOYGAN LAKESH 1900   42     360/ 12/ 12 1022.9F
PORT WASHINGTON  1940   49      30/  8/ 11 1022.7F
MILWAUKEE LAKESH 1930   51      20/ 14/ 15   N/A
KENOSHA   LAKESH 1900   45                 1021.3
$$

TC  - TEMPERATURE IN CELSIUS
VSB - VISIBILITY IN STATUTE MILES
WCI - WIND CHILL INDEX
HX  - HEAT INDEX





USA.gov is the U.S. government's official web portal to all federal, state and local government web resources and services.